DECAYED

STARLINK-6063, 56811 (Decayed)

Orbit data source: Space-Track

STARLINK-6063, 56811 was a payload satellite owned by SpaceX/Seattle (US) in LEO that was launched on Wed, 31 May 2023 UTC via an FALCON 9 launch vehicle from the Air Force Western Test Range (AFWTR). Payload-class satellites include a variety of spacecraft equipped with specific instruments for various scientific and technological missions. These include communications satellites like Starlink; space stations such as the ISS; scientific satellites like the Hubble; Earth observation satellites from companies like Planet Labs, Umbra, and HawkEye 360; GPS; miniature CubeSats for education and research; and military/defense satellites.

Not visible in the next 10 days
Identifier
56811, 2023-078AW
Orbit
Decayed
Country
Flag of USUS
Related business
Manufacturer
SpaceX/Seattle
Mission
Decayed Commercial Communications
Bus & Motor
STARLINK, Unknown motor
Mass
305 kg wet, ~290 kg dry
Launch date (UTC)
2023-05-31 (3 years ago)
Launch vehicle
FALCON 9
Launch site
Air Force Western Test Range (AFWTR)
Object type
Payload
Rocket body
Debris
Shape & HBR
Box + 1 Pan, 10.1 m
Radar Cross Section
11.087 m², Large (>1 m²)

Expand to show TLE details & history
Last TLE update: 1 month ago

TLE from 1 month ago
0 STARLINK-6063
1 56811U 23078AW  26146.03426735  .07085661  44052-5  24829-3 0  9991
2 56811  69.9827  75.6033 0014180 251.3950 108.5743 16.43000737166087
Epoch: 2026-05-26T00:49Z
TLE epoch observation values (Epoch: 2026-05-26T00:49:20.699Z)
Latitude
0.00002°
Longitude
179.65356°
Altitude
163.373 km
Speed
7.807 km/s
True Right ascension
05h 02m 24s
True Declination
0° 00' 00"
Sunlit
Object was in daylight at epoch
Visualization orbit readout
Latitude
Unknown
Longitude
Unknown
Altitude
Unknown
Speed
Unknown
Apparent Right ascension
Unknown
Apparent Declination
Unknown
Sunlit
N/A
Visualization observer readout
Local Sidereal Time
21:32:09
Azimuth
Unknown
Elevation
Unknown
Doppler factor
Unknown
Orbital elements
Apogee altitude
164.917 km
Perigee altitude
146.387 km
Semi-major axis
6,533.789 km
Eccentricity
0.00142
Inclination
69.9827°
RAAN
75.6033°
Arg. of periapsis
251.395°
True anomaly
108.72824°
Mean anomaly
108.5743°
Eccentric anomaly
108.65128°
Mean motion
4.10956 °/min
Orbital period
87.6 mins
BSTAR
0.00024829
Loading maneuver chart data...
Computing Atmospheric mass density...
Loading historical data...
Loading historical data...
Loading historical data...
Loading historical data...
Loading historical data...
Loading historical data...
Loading historical data...

Documentation

Showing up to 5 results
|